Flag for Germany Weather past 2 weeks in Wolfenbüttel, Lower Saxony, Germany

Now
90 °F

Passing clouds.


Feels Like: 87 °F
Forecast: 65 / 89 °F
Wind: 8 mph from South

Location: Braunschweig

Current Time: Aug 3, 2015 at 6:05:06 PM

Latest Report: Aug 3, 2015 at 5:20 PM


Visibility: N/A

Pressure: 29.98 "Hg

Humidity: 26%

Dew point: 50 °F

Location of WolfenbüttelLocation

Historic Weather in Wolfenbüttel — Graph

°F

Wolfenbüttel temperature yesterday

Maximum temperature yesterday: 79 °F (at 3:50 PM)
Minimum temperature yesterday: 66 °F (at 9:50 AM)
Average temperature yesterday: 75 °F

Past Weeks' High & Low Weather Summary

 TemperatureHumidityPressure
High90 °F (Aug 3, 3:20 PM)100% (Jul 19, 7:50 PM)30.15 "Hg (Jul 19, 7:50 PM)
Low50 °F (Jul 31, 6:50 AM)26% (Aug 3, 4:50 PM)29.53 "Hg (Jul 25, 1:50 PM)
Average67 °F63%29.87 "Hg
* Reported Jul 19 4:50 PM — Aug 3 4:50 PM, Wolfenbüttel, Weather by CustomWeather, © 2015

Note: Actual official high and low records may vary slightly from our data, if they occured in-between our weather recording intervals... More about our weather records

Advertising

Wolfenbüttel weather history for previous 24 hours

 ConditionsComfort  
Time TempWeatherWind HumidityBarometerVisibility
4:50 PM
Mon, Aug 3
90 °FPassing clouds.6 mph26%30.01 "HgN/A
4:20 PM90 °FPassing clouds.6 mph29%30.01 "HgN/A
3:50 PM90 °FPassing clouds.8 mph27%30.01 "HgN/A
3:20 PM90 °FPassing clouds.8 mph27%30.01 "HgN/A
2:20 PM88 °FPassing clouds.12 mph31%30.01 "HgN/A
1:50 PM86 °FPassing clouds.8 mph33%30.04 "HgN/A
1:20 PM88 °FPassing clouds.9 mph35%30.04 "HgN/A
12:50 PM86 °FPassing clouds.9 mph35%30.04 "HgN/A
12:20 PM84 °FPassing clouds.7 mph37%30.04 "HgN/A
11:50 AM82 °FPassing clouds.9 mph37%30.07 "HgN/A
11:20 AM82 °FPassing clouds.10 mph37%30.07 "HgN/A
10:50 AM81 °FPassing clouds.10 mph37%30.07 "HgN/A
10:20 AM79 °FPassing clouds.8 mph42%30.07 "HgN/A
9:50 AM73 °FSunny.8 mph57%30.07 "Hg10 mi
9:20 AM70 °FSunny.7 mph64%30.07 "Hg10 mi
8:50 AM68 °FSunny.7 mph64%30.07 "Hg10 mi
8:20 AM64 °FSunny.12 mph73%30.07 "Hg10 mi
7:50 AM61 °FSunny.9 mph83%30.07 "Hg10 mi
7:20 AM59 °FSunny.8 mph88%30.07 "Hg10 mi
6:50 AM57 °FSunny.7 mph88%30.07 "Hg10 mi
Weather by CustomWeather, © 2015

See weather overviewHow to use our weather pages